sat.trackr.live / text

‹ back to catalog

STARLINK-6175

NORAD 56882 · 2023-083G

PAYLOAD ACTIVE UNKNOWN

§ Identity

Operator
Country
US
Launch date
2023-06-12
Launch site
AFETR
Launch vehicle
Mass (kg)
RCS (m²)

Purposes: comms

External: N2YO · Heavens-Above · Gunter

§ Orbital elements

Epoch: 2026-05-25T00:12:38.566944Z

Period
94.27 min
Inclination
43.0015°
Eccentricity
0.0000783
Mean motion
15.27567525 rev/d
Perigee alt
482.5 km
Apogee alt
483.6 km
Semi-major
6,861.2 km
B*
-1.6050e-5
RAAN
14.0845°
Arg perigee
260.5140°
Mean anomaly
99.5623°
Rev number
16,330

§ Raw data

STARLINK-61751 56882U 23083G   26145.00877971 -.00000703  00000+0 -16050-4 0  99992 56882  43.0015  14.0845 0000783 260.5140  99.5623 15.27567525163304

JSON: /api/v1/satellites/56882 · /tle

For live sub-satellite position, see the globe view (requires WebGL).

§ Visibility from observer

Set your observer location to see the next 7 days of passes ≥ 10°. The values pass through the URL so the page stays shareable.

No JS? Fill the form by hand. The geolocation button needs JavaScript.